[[{"header":{"parameterUnit":"m.s-1","parameterCategory":1,"la1":30.2992,"la2":30.254,"lo1":-89.0895,"lo2":-89.0443,"dy":0.0025,"dx":0.0025,"nx":19,"ny":19,"refTime":"2026-03-29T21:00:00:Z","depth":0,"parameterNumber":2,"parameterNumberName":"U-component_of_WINDS"},"data":[0,0,0,-4.2659,-4.2661,-4.2739,-4.2739,-4.2847,-4.2848,0,0,0,0,0,0,0,0,0,0,0,-4.264,-4.2641,-4.2659,-4.2661,-4.2739,-4.2739,-4.2846,-4.2848,0,0,0,0,0,0,0,0,0,0,0,-4.264,-4.2641,-4.2642,-4.2661,-4.2739,-4.2739,-4.2846,-4.2785,0,0,0,0,0,0,0,0,0,0,-4.2708,-4.2694,-4.264,-4.2642,-4.2662,-4.2739,-4.274,-4.2782,-4.2789,-4.2814,0,-4.2838,0,-4.2845,-4.2855,-4.2856,0,0,0,-4.2658,-4.2688,-4.2706,-4.2642,-4.2663,-4.2739,-4.2703,-4.2785,-4.2793,-4.2824,-4.2839,-4.2843,-4.2846,-4.2856,-4.2857,-4.3015,-4.3016,0,0,-4.2654,-4.2656,-4.27,-4.2711,-4.2699,-4.2701,-4.2706,-4.279,-4.2807,-4.284,-4.2846,-4.2848,-4.2857,-4.2858,-4.3014,-4.3015,0,0,0,-4.2643,-4.2653,-4.2669,-4.2707,-4.272,-4.2703,-4.2709,-4.2804,-4.2809,-4.2847,-4.2849,-4.2857,-4.2859,-4.3013,-4.3014,-4.3059,0,0,0,-4.2641,-4.2647,-4.2667,-4.2669,-4.2719,-4.2763,-4.2721,-4.2803,-4.2812,-4.2849,-4.2857,-4.286,-4.3012,-4.3014,-4.3056,-4.3079,0,0,0,-4.2634,-4.2646,-4.2659,-4.2669,-4.2703,-4.2761,-4.2771,-4.2805,-4.2814,-4.2856,-4.286,-4.3011,-4.3013,-4.3053,-4.3074,-4.3121,0,0,0,-4.2627,-4.2698,-4.266,-4.2741,-4.2702,-4.2789,-4.277,-4.2835,-4.2876,-4.2858,-4.3012,-4.3014,-4.3052,-4.3071,-4.3118,-4.3159,-4.3177,0,0,-4.2718,-4.2709,-4.2756,-4.2725,-4.2819,-4.2777,-4.2878,-4.2913,-4.2916,-4.2982,-4.2986,-4.3057,-4.3074,-4.312,-4.328,-4.3294,0,0,0,-4.2786,-4.282,-4.2844,-4.2884,-4.2913,-4.294,-4.296,-4.2974,-4.303,-4.295,-4.3087,-4.3097,-4.3124,-4.3144,-4.3156,-4.3179,-4.3024,-4.3024,-4.3023,-4.2916,-4.2916,-4.2994,-4.3004,-4.3043,-4.3063,-4.3095,-4.3117,-4.3104,-4.3137,-4.3156,-4.3253,-4.3276,-4.3285,-4.3309,-4.3179,-4.318,-4.318,-4.318,-4.3048,-4.3096,-4.308,-4.3149,-4.3149,-4.3208,-4.3232,-4.3222,-4.3277,-4.3238,-4.3262,-4.3218,-4.3301,-4.3321,-4.3183,-4.3183,-4.3182,-4.3182,-4.3182,-4.3132,-4.3155,-4.3171,-4.3229,-4.3274,-4.3282,-4.3335,-4.3334,-4.3332,-4.3356,-4.3375,-4.3374,-4.3372,-4.3366,-4.3366,-4.3366,-4.3367,-4.3367,-4.3367,-4.3212,-4.3229,-4.3274,-4.3313,-4.3338,-4.3372,-4.3396,-4.3421,-4.3449,-4.3443,-4.3443,-4.3428,-4.331,-4.3279,-4.3372,-4.3371,-4.3371,-4.337,-4.337,-4.3343,-4.3313,-4.3383,-4.3409,-4.3455,-4.35,-4.3498,-4.355,-4.3571,-4.3598,-4.3579,-4.3492,-4.3483,-4.3473,-4.3447,-4.3579,-4.3579,-4.3579,-4.3579,-4.3412,-4.3408,-4.3479,-4.3521,-4.3562,-4.3567,-4.3647,-4.3667,-4.3683,-4.3697,-4.3678,-4.3645,-4.3635,-4.3632,-4.3618,-4.3594,-4.376,-4.3761,-4.3761,-4.3492,-4.3492,-4.3559,-4.3574,-4.3611,-4.3642,-4.3717,-4.3767,-4.3779,-4.3768,-4.3707,-4.3699,-4.3646,-4.3629,-4.3613,-4.3593,-4.3549,0,0]},{"header":{"parameterUnit":"m.s-1","parameterCategory":1,"la1":30.2992,"la2":30.254,"lo1":-89.0895,"lo2":-89.0443,"dy":0.0025,"dx":0.0025,"nx":19,"ny":19,"refTime":"2026-03-29T21:00:00:Z","depth":0,"parameterNumber":3,"parameterNumberName":"V-component_of_WINDS"},"data":[0,0,0,3.2414,3.2416,3.2494,3.2494,3.2574,3.2575,0,0,0,0,0,0,0,0,0,0,0,3.2383,3.2383,3.2414,3.2416,3.2494,3.2494,3.2574,3.2575,0,0,0,0,0,0,0,0,0,0,0,3.2383,3.2383,3.2383,3.2416,3.2493,3.2494,3.2574,3.2521,0,0,0,0,0,0,0,0,0,0,3.2449,3.2412,3.2383,3.2383,3.2416,3.2493,3.2494,3.2519,3.2525,3.2532,0,3.2539,0,3.2559,3.2579,3.258,0,0,0,3.2421,3.2408,3.2437,3.2383,3.2417,3.2493,3.246,3.2522,3.2529,3.2539,3.2541,3.2544,3.256,3.258,3.258,3.2614,3.2614,0,0,3.2417,3.2391,3.2432,3.244,3.2431,3.2457,3.2462,3.2526,3.2525,3.2541,3.2546,3.2561,3.258,3.2581,3.2614,3.2614,0,0,0,3.2401,3.2388,3.2416,3.2437,3.2452,3.2459,3.2465,3.2522,3.2533,3.2547,3.2562,3.2581,3.2582,3.2614,3.2614,3.2587,0,0,0,3.2398,3.2379,3.2414,3.2399,3.2451,3.2489,3.2459,3.2529,3.2537,3.2562,3.2581,3.2582,3.2614,3.2614,3.2589,3.2579,0,0,0,3.238,3.2377,3.2386,3.2397,3.2431,3.2488,3.2504,3.2531,3.2546,3.258,3.2582,3.2614,3.2614,3.2589,3.258,3.2582,0,0,0,3.2353,3.2358,3.2385,3.2397,3.243,3.2472,3.2504,3.2536,3.2561,3.2581,3.2614,3.2614,3.259,3.2581,3.2582,3.2579,3.2575,0,0,3.2346,3.2357,3.2366,3.2392,3.2424,3.2462,3.2489,3.2535,3.2559,3.2593,3.2594,3.2588,3.258,3.2582,3.2561,3.2557,0,0,0,3.2355,3.2361,3.2375,3.2401,3.2438,3.2469,3.2513,3.253,3.2562,3.2573,3.2589,3.2585,3.2587,3.2586,3.2584,3.2587,3.2613,3.2613,3.2613,3.2308,3.2342,3.2359,3.2403,3.2426,3.2474,3.2496,3.2526,3.255,3.2553,3.2564,3.2548,3.2546,3.2544,3.2547,3.2564,3.2564,3.2564,3.2564,3.2301,3.2316,3.2352,3.2382,3.2416,3.244,3.2485,3.2502,3.2527,3.2542,3.2545,3.2559,3.254,3.2544,3.2562,3.2563,3.2563,3.2563,3.2563,3.2275,3.2289,3.2311,3.2353,3.238,3.2422,3.2447,3.2476,3.2503,3.2506,3.2521,3.2522,3.2527,3.2511,3.2511,3.2511,3.2511,3.2511,3.2511,3.224,3.2266,3.2286,3.2327,3.2348,3.2378,3.2426,3.2446,3.2475,3.2495,3.2495,3.2519,3.2532,3.2535,3.251,3.2511,3.2511,3.2511,3.2511,3.2222,3.2231,3.226,3.2282,3.2333,3.2358,3.2396,3.2435,3.2455,3.2466,3.249,3.2495,3.2507,3.2509,3.2512,3.2483,3.2483,3.2483,3.2483,3.22,3.221,3.2248,3.228,3.2315,3.2352,3.2382,3.2419,3.2457,3.2471,3.248,3.2485,3.2487,3.2498,3.2501,3.2504,3.2473,3.2473,3.2473,3.2192,3.2207,3.2228,3.227,3.2312,3.2347,3.2376,3.2409,3.2453,3.2474,3.2483,3.2484,3.2494,3.2495,3.2516,3.2519,3.2525,0,0]}]]